Stations météo

réclame
Mon MeteoGroup
Camborne, Grande-Bretagne (3808): Température de l'air & dewpoint: 14.04.2018 21:00:00 - 20.04.2018 21:00:00 (BST)Camborne, Grande-Bretagne (3808): Température de l'air -20cm & Température de l'air -100cm: 14.04.2018 21:00:00 - 20.04.2018 21:00:00 (BST)Camborne, Grande-Bretagne (3808): Vitesse du vent & gusts: 14.04.2018 21:00:00 - 20.04.2018 21:00:00 (BST)Camborne, Grande-Bretagne (3808): Direction du vent: 14.04.2018 21:00:00 - 20.04.2018 21:00:00 (BST)Camborne, Grande-Bretagne (3808): reduced air pressure: 14.04.2018 21:00:00 - 20.04.2018 21:00:00 (BST)Camborne, Grande-Bretagne (3808): visibility: 14.04.2018 21:00:00 - 20.04.2018 21:00:00 (BST)Camborne, Grande-Bretagne (3808): Ensoleillement: 14.04.2018 21:00:00 - 20.04.2018 21:00:00 (BST)Camborne, Grande-Bretagne (3808): Quantités de précipitations: 14.04.2018 21:00:00 - 20.04.2018 21:00:00 (BST)
Date & Time tt [°C] td [°C] tt -20cm [°C] tt -100cm [°C] ff [km/h] ff [knt] fx [km/h] fx [knt] dd ppp [hPa] vv [km] sd [min] rr [mm]
20.04.2018 21:00:00 7,7 7,7 - - 16 9 - - NNE 1024,8 0,4 0 -
20.04.2018 20:00:00 7,7 7,6 - - 16 9 - - NNE 1024,5 0,9 0 0,0
20.04.2018 19:00:00 8,2 8,1 - - 16 9 - - NNE 1024,7 0,1 0 0,0
20.04.2018 18:00:00 8,8 8,2 - - 13 7 - - NNE 1024,8 8 36 0,0
20.04.2018 17:00:00 9,4 8,7 - - 16 9 - - NNE 1025,1 6 36 0,0
20.04.2018 16:00:00 9,7 8,4 - - 16 9 - - N 1025,5 12 60 0,0
20.04.2018 15:00:00 9,4 8,5 - - 18 10 - - N 1025,9 12 54 0,0
20.04.2018 14:00:00 9,8 8,4 - - 16 9 - - NNE 1026,2 14 60 0,0
20.04.2018 13:00:00 9,7 8,8 - - 16 9 - - N 1026,5 0,9 36 0,0
20.04.2018 12:00:00 8,4 8,3 - - 21 11 - - N 1026,9 0,3 6 0,0
20.04.2018 11:00:00 8,3 8,2 - - 18 10 - - N 1026,5 0,2 30 0,0
20.04.2018 10:00:00 9,4 9,2 11,9 10,4 16 9 - - NNE 1026,1 0,4 6 0,0
20.04.2018 09:00:00 8,6 8,5 - - 18 10 - - N 1026,1 0,2 0 0,0
20.04.2018 08:00:00 8,7 8,6 - - 18 10 - - NNE 1025,6 0,4 0 0,0
20.04.2018 07:00:00 9,0 8,8 - - 21 11 - - NNE 1025,4 0,8 0 0,0
20.04.2018 06:00:00 9,1 8,9 - - 16 9 - - N 1025,1 2,0 0 0,0
20.04.2018 05:00:00 9,3 9,0 - - 15 8 - - NNE 1025,0 4,9 0 0,0
20.04.2018 04:00:00 9,5 9,0 - - 15 8 - - NNE 1025,1 5 0 0,0
20.04.2018 03:00:00 9,7 9,4 - - 13 7 - - NNE 1025,2 8 0 0,0
20.04.2018 02:00:00 9,7 9,6 - - 11 6 - - NNE 1025,3 5 0 0,0
20.04.2018 01:00:00 9,6 9,4 - - 13 7 - - NNE 1025,3 6 - 0,0
20.04.2018 00:00:00 9,6 9,2 - - 11 6 - - NNE 1025,4 5 0 0,0
19.04.2018 23:00:00 9,9 9,4 - - 11 6 - - NNE 1025,5 6 0 0,0
19.04.2018 22:00:00 10,3 9,5 - - 13 7 - - NNE 1025,5 10 0 0,0
19.04.2018 21:00:00 10,6 9,8 - - 13 7 - - NNE 1025,3 10 0 0,0
19.04.2018 20:00:00 11,2 10,0 - - 16 9 - - NNE 1024,8 10 0 0,0
19.04.2018 19:00:00 11,7 10,2 - - 13 7 - - NNE 1024,7 20 0 0,0
19.04.2018 18:00:00 12,2 10,6 - - 11 6 - - N 1024,9 13 0 0,0
19.04.2018 17:00:00 13,0 11,1 - - 13 7 - - NNW 1024,6 17 42 0,0
19.04.2018 16:00:00 13,7 11,0 - - 13 7 - - N 1024,8 19 60 0,0
19.04.2018 15:00:00 14,2 11,8 - - 13 7 - - NW 1024,9 9 42 0,0
19.04.2018 14:00:00 14,2 12,1 - - 11 6 - - NNW 1025,0 11 6 0,0
19.04.2018 13:00:00 14,6 11,7 - - 8 4 - - SW 1024,7 24 6 0,0
19.04.2018 12:00:00 13,2 11,4 - - 8 4 - - SW 1024,9 21 0 0,0
19.04.2018 11:00:00 12,3 11,4 - - 9 5 - - SW 1024,7 17 0 0,0
19.04.2018 10:00:00 11,4 11,1 11,4 10,2 4 2 - - W 1024,3 2,4 0 0,0
19.04.2018 09:00:00 10,7 10,6 - - 5 3 - - WSW 1023,8 0,6 0 0,0
19.04.2018 08:00:00 10,3 10,0 - - 5 3 - - SW 1023,4 0,2 0 -
19.04.2018 07:00:00 9,9 9,1 - - 11 6 - - SW 1022,9 6 0 -
19.04.2018 06:00:00 9,6 8,3 - - 9 5 - - S 1022,5 15 0 -
19.04.2018 05:00:00 9,5 7,9 - - 9 5 - - SSE 1022,1 15 0 -
19.04.2018 04:00:00 10,1 8,3 - - 9 5 - - S 1022,0 18 0 -
19.04.2018 03:00:00 10,0 8,1 - - 11 6 - - SSE 1021,8 19 0 -
19.04.2018 02:00:00 9,3 8,4 - - 11 6 - - SSE 1022,0 8 0 0,0
19.04.2018 01:00:00 10,2 9,0 - - 9 5 - - S 1022,0 10 - 0,0
19.04.2018 00:00:00 10,7 8,9 - - 9 5 - - SSE 1021,5 16 0 0,0
18.04.2018 23:00:00 10,9 9,1 - - 8 4 - - S 1021,8 12 0 0,0
18.04.2018 22:00:00 11,7 9,1 - - 13 7 - - S 1021,6 16 0 0,0
18.04.2018 21:00:00 12,8 8,7 - - 16 9 - - S 1021,2 22 0 0,0
18.04.2018 20:00:00 14,7 8,3 - - 18 10 - - S 1020,9 23 60 0,0
18.04.2018 19:00:00 16,3 9,1 - - 21 11 - - SSE 1020,8 25 60 0,0
18.04.2018 18:00:00 17,1 9,4 - - 29 16 48 26 SE 1020,6 19 60 0,0
18.04.2018 17:00:00 17,5 10,4 - - 31 17 48 26 SE 1020,3 19 60 0,0
18.04.2018 16:00:00 17,7 9,8 - - 31 17 52 28 SE 1020,6 30 60 0,0
18.04.2018 15:00:00 18,5 9,6 - - 34 18 57 31 SE 1021,0 30 60 0,0
18.04.2018 14:00:00 18,9 10,6 - - 37 20 57 31 SSE 1021,7 26 60 0,0
18.04.2018 13:00:00 18,5 8,4 - - 35 19 63 34 SSE 1021,9 30 60 0,0
18.04.2018 12:00:00 17,8 10,9 - - 37 20 59 32 SE 1021,8 22 60 0,0
18.04.2018 11:00:00 16,6 10,7 - - 28 15 48 26 SSE 1022,4 26 60 0,0
18.04.2018 10:00:00 14,3 10,2 10,7 10,0 26 14 46 25 SSE 1022,9 20 60 0,0
18.04.2018 09:00:00 12,4 10,7 - - 16 9 - - S 1023,2 10 36 0,0
18.04.2018 08:00:00 10,9 10,4 - - 22 12 - - S 1023,3 3,7 0 0,0
18.04.2018 07:00:00 11,2 10,6 - - 15 8 - - S 1023,1 3,0 0 0,0
18.04.2018 06:00:00 11,3 10,9 - - 28 15 50 27 S 1022,6 5 0 0,0
18.04.2018 05:00:00 11,5 11,1 - - 34 18 55 30 S 1022,3 2,9 0 0,0
18.04.2018 04:00:00 11,5 11,0 - - 37 20 57 31 SSW 1022,1 5 0 0,0
18.04.2018 03:00:00 11,5 11,1 - - 34 18 61 33 S 1021,4 5 0 0,0
18.04.2018 02:00:00 11,5 11,1 - - 29 16 59 32 SSW 1021,3 5 0 0,0
18.04.2018 01:00:00 11,3 11,2 - - 34 18 55 30 S 1020,6 4,0 - 0,0
18.04.2018 00:00:00 11,5 11,2 - - 31 17 52 28 S 1020,2 1,5 0 0,0
17.04.2018 23:00:00 11,6 11,2 - - 34 18 50 27 S 1019,7 4,0 0 0,0
17.04.2018 22:00:00 11,5 11,2 - - 29 16 52 28 S 1019,4 3,5 0 0,0
17.04.2018 21:00:00 11,5 11,1 - - 34 18 55 30 S 1018,7 2,5 0 0,0
17.04.2018 20:00:00 11,4 11,2 - - 35 19 52 28 S 1017,8 1,2 0 0,0
17.04.2018 19:00:00 11,4 11,3 - - 34 18 52 28 S 1017,1 1,1 0 0,2
17.04.2018 18:00:00 11,3 11,2 - - 31 17 48 26 S 1017,2 1,0 0 0,2
17.04.2018 17:00:00 11,3 11,2 - - 26 14 - - S 1016,8 1,2 0 0,0
17.04.2018 16:00:00 11,2 11,1 - - 26 14 - - S 1016,2 1,7 0 0,2
17.04.2018 15:00:00 11,4 11,1 - - 24 13 50 27 SSW 1016,1 2,0 0 0,4
17.04.2018 14:00:00 11,5 11,2 - - 34 18 54 29 SSW 1015,3 2,5 0 1,0
17.04.2018 13:00:00 11,2 11,0 - - 24 13 57 31 SSW 1014,9 1,8 0 1,6
17.04.2018 12:00:00 11,2 11,0 - - 39 21 72 39 SSW 1014,0 1,8 0 0,4
17.04.2018 11:00:00 11,0 10,5 - - 41 22 70 38 S 1013,2 3,0 0 0,2
17.04.2018 10:00:00 10,8 10,4 10,7 10,0 44 24 72 39 S 1012,4 3,0 0 0,2
17.04.2018 09:00:00 10,6 10,2 - - 44 24 68 37 S 1011,7 2,0 0 1,0
17.04.2018 08:00:00 10,8 9,7 - - 42 23 74 40 S 1010,9 3,0 0 0,2
17.04.2018 07:00:00 10,3 9,6 - - 42 23 74 40 S 1010,5 2,5 0 0,4
17.04.2018 06:00:00 10,1 9,0 - - 46 25 70 38 S 1010,0 3,0 0 0,8
17.04.2018 05:00:00 11,3 6,8 - - 44 24 74 40 S 1009,7 11 0 0,0
17.04.2018 04:00:00 11,3 7,2 - - 44 24 80 43 S 1009,7 8 0 0,0
17.04.2018 03:00:00 11,0 8,0 - - 48 26 76 41 S 1009,7 8 0 0,0
17.04.2018 02:00:00 10,9 8,4 - - 48 26 70 38 S 1009,8 7 0 0,0
17.04.2018 01:00:00 10,8 8,5 - - 42 23 68 37 S 1010,2 8 - 0,0
17.04.2018 00:00:00 10,8 8,7 - - 41 22 67 36 S 1010,0 8 0 0,0
16.04.2018 23:00:00 10,8 8,7 - - 44 24 72 39 S 1010,2 8 0 0,0
16.04.2018 22:00:00 10,7 8,7 - - 41 22 68 37 S 1010,0 8 0 0,0
16.04.2018 21:00:00 10,6 8,6 - - 41 22 65 35 S 1010,9 8 0 0,0
16.04.2018 20:00:00 10,6 8,5 - - 41 22 65 35 S 1010,3 8 0 0,0
16.04.2018 19:00:00 10,6 8,4 - - 42 23 67 36 S 1010,1 8 0 0,0
16.04.2018 18:00:00 10,6 8,6 - - 42 23 65 35 S 1010,3 12 0 0,2
16.04.2018 17:00:00 10,2 8,6 - - 41 22 63 34 S 1010,7 7 0 0,2
16.04.2018 16:00:00 11,2 8,0 - - 41 22 63 34 S 1011,0 12 0 0,0
16.04.2018 15:00:00 11,6 7,5 - - 42 23 67 36 S 1011,3 18 36 0,0
16.04.2018 14:00:00 11,9 6,3 - - 39 21 61 33 S 1011,3 18 36 0,0
16.04.2018 13:00:00 12,0 5,1 - - 41 22 59 32 S 1011,5 23 36 0,0
16.04.2018 12:00:00 11,7 7,0 - - 34 18 55 30 S 1011,6 20 18 0,0
16.04.2018 11:00:00 11,8 6,9 - - 28 15 52 28 S 1011,5 22 54 0,0
16.04.2018 10:00:00 11,5 4,8 10,7 9,9 29 16 46 25 SSW 1011,0 22 48 0,0
16.04.2018 09:00:00 10,7 6,3 - - 24 13 - - SSW 1011,0 15 42 0,0
16.04.2018 08:00:00 9,3 7,0 - - 21 11 - - SSW 1010,6 15 0 0,0
16.04.2018 07:00:00 8,1 6,2 - - 13 7 - - SSW 1010,3 14 0 0,0
16.04.2018 06:00:00 8,4 7,3 - - 13 7 - - SSW 1009,7 10 0 0,2
16.04.2018 05:00:00 6,9 5,6 - - 11 6 - - SSW 1009,7 14 0 0,0
16.04.2018 04:00:00 7,6 5,8 - - 11 6 - - SW 1009,3 12 0 0,0
16.04.2018 03:00:00 8,0 5,9 - - 15 8 - - SW 1009,0 12 0 0,0
16.04.2018 02:00:00 8,2 6,3 - - 13 7 - - SW 1008,8 10 0 0,0
16.04.2018 01:00:00 8,6 7,0 - - 16 9 - - SW 1008,3 12 - 0,0
16.04.2018 00:00:00 8,8 6,6 - - 18 10 - - SW 1008,1 12 0 0,0
15.04.2018 23:00:00 8,9 6,8 - - 18 10 - - SW 1007,5 12 0 0,0
15.04.2018 22:00:00 9,0 7,0 - - 18 10 - - SW 1007,0 14 0 0,0
15.04.2018 21:00:00 9,3 7,4 - - 18 10 52 28 SW 1006,3 12 0 0,0
15.04.2018 20:00:00 9,8 7,4 - - 28 15 54 29 SW 1005,6 8 6 0,0
15.04.2018 19:00:00 10,5 8,6 - - 28 15 - - SW 1004,8 10 0 0,4
15.04.2018 18:00:00 11,0 8,5 - - 26 14 46 25 WSW 1004,2 8 0 0,0
15.04.2018 17:00:00 11,3 9,1 - - 28 15 63 34 SW 1003,7 7 6 0,0
15.04.2018 16:00:00 11,4 9,5 - - 34 18 46 25 SW 1003,4 12 0 0,4
15.04.2018 15:00:00 11,7 9,6 - - 31 17 55 30 SSW 1003,1 1,5 18 0,0
15.04.2018 14:00:00 11,9 10,0 - - 34 18 48 26 SSW 1003,0 7 12 0,2
15.04.2018 13:00:00 11,8 10,1 - - 28 15 50 27 S 1002,9 5 12 0,4
15.04.2018 12:00:00 10,3 9,4 - - 29 16 52 28 S 1003,0 3,0 0 1,4
15.04.2018 11:00:00 11,6 9,2 - - 34 18 55 30 S 1002,8 7 18 0,0
15.04.2018 10:00:00 11,3 9,7 10,7 9,7 28 15 46 25 S 1002,9 5 6 0,0
15.04.2018 09:00:00 10,8 9,4 - - 29 16 48 26 S 1003,4 6 0 0,2
15.04.2018 08:00:00 10,5 9,4 - - 31 17 46 25 S 1004,0 6 0 0,0
15.04.2018 07:00:00 10,2 9,6 - - 26 14 46 25 S 1004,3 8 0 0,0
15.04.2018 06:00:00 10,0 9,3 - - 29 16 55 30 S 1004,7 14 0 0,8
15.04.2018 05:00:00 10,0 9,4 - - 31 17 54 29 SSE 1005,0 8 0 2,4
15.04.2018 04:00:00 10,0 9,0 - - 31 17 55 30 SSE 1006,4 8 0 0,8
15.04.2018 03:00:00 10,1 8,4 - - 35 19 54 29 SSE 1007,2 10 0 0,0
15.04.2018 02:00:00 10,1 8,3 - - 29 16 50 27 SSE 1007,8 14 0 0,0
15.04.2018 01:00:00 10,3 8,3 - - 31 17 52 28 SSE 1008,8 14 - 0,0
15.04.2018 00:00:00 10,2 8,6 - - 29 16 46 25 SSE 1009,8 12 0 0,0
14.04.2018 23:00:00 9,9 8,5 - - 28 15 - - SSE 1010,6 10 0 0,0
14.04.2018 22:00:00 9,5 8,1 - - 24 13 - - SE 1011,4 10 0 0,0
14.04.2018 21:00:00 9,3 7,9 - - 22 12 - - SE 1012,1 6 0 0,0

tt = Température de l'air
td = dewpoint
tt -20cm = Température de l'air -20cm
tt -100cm = Température de l'air -100cm
ff = Vitesse du vent
fx = gusts
dd = Direction du vent
ppp = reduced air pressure
vv = visibility
sd = Ensoleillement
rr = Quantités de précipitations

stations d'obs. à proximité